Goodland, KS

10:46 PM MST on November 24, 2017 (GMT -0700)
Renner-Goodland Municipal

Weather History for KGLD - May, 2014

Change the Weather History Date:

Tuesday, May 27, 2014

  Actual Average Record
Temperature  
Mean Temperature 67 °F 63 °F  
Max Temperature 84 °F 77 °F 99 °F (2006)
Min Temperature 50 °F 50 °F 29 °F (1950)
Degree Days  
Heating Degree Days 0 4  
Month to date heating degree days 209 197  
Since 1 July heating degree days 5958 5852  
Cooling Degree Days 2 2  
Month to date cooling degree days 11 31  
Year to date cooling degree days 16 35  
Growing Degree Days 18 (Base 50)    
Moisture  
Dew Point 51 °F    
Average Humidity 59    
Maximum Humidity 89    
Minimum Humidity 28    
Precipitation  
Precipitation 0.00 in 0.12 in 3.49 in (1972)
Month to date precipitation 1.29 2.48  
Year to date precipitation 3.08 6.01  
Snow  
Snow 0.00 in 0.00 in - ()
Month to date snowfall T 0.5  
Since 1 July snowfall 29.1 35.5  
Snow Depth 0.00 in    
Sea Level Pressure  
Sea Level Pressure 29.94 in    
Wind  
Wind Speed 6 mph (SSW)    
Max Wind Speed 14 mph    
Max Gust Speed 22 mph    
Visibility 10 miles    
Events      
T = Trace of Precipitation, MM = Missing Value Source: NWS Daily Summary

Daily Weather History Graph

Daily Weather History Graph

Search for Another Location

Airport or City:

Trip Planner

Search our weather history database for the weather conditions in past years. The results will help you decide how hot, cold, wet, or windy it might be!

Date:

Astronomy

May. 27, 2014 Rise Set
Actual Time 5:24 AM MDT 8:04 PM MDT
Civil Twilight 4:53 AM MDT 8:35 PM MDT
Nautical Twilight 4:13 AM MDT 9:14 PM MDT
Astronomical Twilight 3:29 AM MDT 9:58 PM MDT
Moon 4:47 AM MDT (5/27) 7:08 PM MDT (5/27)
Length of Visible Light 15h 42m
Length of Day
14h 39m
Waning Crescent, 1% of the Moon is Illuminated
May 27
Waning Crescent
May 28
New
Jun 5
First Quarter
Jun 12
Full
Jun 19
Last Quarter

Hourly Weather History & Observations

Time (MDT) Temp. Dew Point Humidity Pressure Visibility Wind Dir Wind Speed Gust Speed Precip Events Conditions
12:53 AM 55.0 °F 51.1 °F 86% 29.90 in 10.0 mi WSW 6.9 mph - N/A   Clear
1:53 AM 53.1 °F 50.0 °F 89% 29.90 in 10.0 mi West 8.1 mph - N/A   Clear
2:53 AM 53.1 °F 50.0 °F 89% 29.89 in 10.0 mi West 6.9 mph - N/A   Clear
3:53 AM 53.1 °F 50.0 °F 89% 29.91 in 10.0 mi West 5.8 mph - N/A   Clear
4:53 AM 53.1 °F 48.9 °F 86% 29.94 in 10.0 mi Calm Calm - N/A   Clear
5:53 AM 52.0 °F 48.9 °F 89% 29.95 in 10.0 mi West 8.1 mph - N/A   Clear
6:53 AM 57.9 °F 51.1 °F 78% 29.94 in 10.0 mi NW 8.1 mph - N/A   Clear
7:53 AM 64.9 °F 52.0 °F 63% 29.94 in 10.0 mi NNW 6.9 mph - N/A   Clear
8:53 AM 70.0 °F 54.0 °F 57% 29.95 in 10.0 mi NE 6.9 mph - N/A   Clear
9:53 AM 75.0 °F 54.0 °F 48% 29.95 in 10.0 mi NE 10.4 mph - N/A   Clear
10:53 AM 79.0 °F 53.1 °F 40% 29.95 in 10.0 mi NE 6.9 mph - N/A   Clear
11:53 AM 80.1 °F 50.0 °F 35% 29.94 in 10.0 mi East 6.9 mph - N/A   Partly Cloudy
12:53 PM 81.0 °F 46.9 °F 30% 29.94 in 10.0 mi NW 4.6 mph 16.1 mph N/A   Clear
1:53 PM 82.9 °F 46.9 °F 28% 29.93 in 10.0 mi Calm Calm - N/A   Clear
2:53 PM 82.4 °F 50.0 °F 32% 30.03 in 10.0 mi SSE 6.9 mph - N/A   Scattered Clouds
3:53 PM 84.0 °F 51.1 °F 32% 29.92 in 10.0 mi SE 9.2 mph - N/A   Partly Cloudy
4:53 PM 82.0 °F 50.0 °F 33% 29.92 in 10.0 mi Variable 3.5 mph - N/A   Partly Cloudy
5:53 PM 82.0 °F 52.0 °F 35% 29.92 in 10.0 mi ENE 4.6 mph - N/A   Clear
6:53 PM 79.0 °F 52.0 °F 39% 29.91 in 10.0 mi SE 9.2 mph - N/A   Clear
7:53 PM 71.1 °F 57.0 °F 61% 29.93 in 10.0 mi SSE 5.8 mph - N/A   Clear
8:53 PM 66.9 °F 55.0 °F 66% 29.94 in 10.0 mi SE 4.6 mph - N/A   Clear
9:53 PM 66.9 °F 52.0 °F 59% 29.95 in 10.0 mi South 8.1 mph - N/A   Clear
10:53 PM 62.1 °F 52.0 °F 70% 29.96 in 10.0 mi SSW 3.5 mph - N/A   Clear
11:53 PM 59.0 °F 51.1 °F 75% 29.97 in 10.0 mi SW 4.6 mph - N/A   Clear